Weather History for Marianna, FL

Change the Weather History Date:

Saturday, September 21, 2013

  Actual Average Record
Temperature  
Mean Temperature 77 °F 77 °F  
Max Temperature 85 °F 87 °F 99 °F (2010)
Min Temperature 69 °F 66 °F 55 °F (2006)
Degree Days  
Heating Degree Days 0    
Month to date heating degree days 0  
Since 1 July heating degree days 0  
Cooling Degree Days 12    
Month to date cooling degree days 341  
Year to date cooling degree days 2204  
Growing Degree Days 27 (Base 50)    
Moisture  
Dew Point 72 °F    
Average Humidity 85    
Maximum Humidity 100    
Minimum Humidity 69    
Precipitation  
Precipitation 0.26 in 0.12 in 1.92 in (1998)
Month to date precipitation 0.83 2.68  
Year to date precipitation 51.51 41.01  
Sea Level Pressure  
Sea Level Pressure 29.80 in    
Wind  
Wind Speed 4 mph (SSW)    
Max Wind Speed 18 mph    
Max Gust Speed 23 mph    
Visibility 10 miles    
Events Rain    
T = Trace of Precipitation, MM = Missing Value Source: NWS Daily Summary

Daily Weather History Graph

Daily Weather History Graph

Search for Another Location

Airport:

Trip Planner

Search our weather history database for the weather conditions in past years. The results will help you decide how hot, cold, wet, or windy it might be!

Date:

Astronomy

Sep. 21, 2013 Rise Set
Actual Time 6:28 AM CDT 6:38 PM CDT
Civil Twilight 6:04 AM CDT 7:02 PM CDT
Nautical Twilight 5:36 AM CDT 7:30 PM CDT
Astronomical Twilight 5:07 AM CDT 7:58 PM CDT
Moon 8:02 PM CDT (9/21) 8:34 AM CDT (9/21)
Length of Visible Light 12h 57m
Length of Day
12h 09m
Waning Gibbous, 94% of the Moon is Illuminated
Sep 21
Waning Gibbous
Sep 26
Last Quarter
Oct 4
New
Oct 11
First Quarter
Oct 18
Full

Hourly Weather History & Observations

Time (CDT) Temp. Heat Index Dew Point Humidity Pressure Visibility Wind Dir Wind Speed Gust Speed Precip Events Conditions
12:53 AM 73.0 °F - 69.1 °F 87% 29.89 in 10.0 mi Calm Calm - N/A   Clear
1:53 AM 72.0 °F - 69.1 °F 91% 29.87 in 10.0 mi Calm Calm - N/A   Clear
2:53 AM 71.1 °F - 68.0 °F 90% 29.86 in 10.0 mi Calm Calm - N/A   Clear
3:53 AM 71.1 °F - 69.1 °F 93% 29.84 in 10.0 mi Calm Calm - N/A   Clear
4:53 AM 70.0 °F - 68.0 °F 93% 29.85 in 10.0 mi Variable 3.5 mph - N/A   Clear
5:53 AM 71.1 °F - 68.0 °F 90% 29.85 in 10.0 mi Calm Calm - N/A   Clear
6:53 AM 70.0 °F - 68.0 °F 93% 29.85 in 10.0 mi Variable 3.5 mph - N/A   Clear
7:53 AM 73.0 °F - 70.0 °F 90% 29.85 in 10.0 mi SSE 5.8 mph - N/A   Clear
8:53 AM 78.1 °F - 71.1 °F 79% 29.85 in 10.0 mi Variable 3.5 mph - N/A   Clear
9:53 AM 81.0 °F 85.2 °F 72.0 °F 74% 29.85 in 10.0 mi SSW 8.1 mph - N/A   Clear
10:53 AM 82.0 °F 86.7 °F 72.0 °F 71% 29.84 in 10.0 mi South 8.1 mph - N/A   Clear
11:53 AM 82.9 °F 88.8 °F 73.0 °F 72% 29.83 in 10.0 mi SW 6.9 mph - N/A   Partly Cloudy
12:53 PM 84.9 °F 91.4 °F 73.0 °F 67% 29.79 in 10.0 mi SSW 12.7 mph 17.3 mph 0.00 in   Mostly Cloudy
1:53 PM 77.0 °F - 73.9 °F 90% 29.79 in 10.0 mi WSW 5.8 mph - 0.04 in Rain Light Rain
2:53 PM 77.0 °F - 75.0 °F 94% 29.78 in 10.0 mi South 8.1 mph - 0.03 in Rain Light Rain
3:22 PM 77.0 °F - 75.2 °F 94% 29.76 in 10.0 mi SW 4.6 mph - 0.00 in Rain Light Rain
3:39 PM 77.0 °F - 75.2 °F 94% 29.76 in 10.0 mi SSW 3.5 mph - 0.00 in   Mostly Cloudy
3:49 PM 77.0 °F - 73.4 °F 89% 29.76 in 10.0 mi Calm Calm - 0.00 in   Scattered Clouds
3:53 PM 77.0 °F - 73.9 °F 90% 29.75 in 10.0 mi Calm Calm - 0.00 in   Partly Cloudy
4:53 PM 75.9 °F - 73.9 °F 94% 29.76 in 10.0 mi SSW 4.6 mph - 0.01 in Rain Light Rain
5:33 PM 75.2 °F - 73.4 °F 94% 29.77 in 10.0 mi Calm Calm - 0.00 in Rain Light Rain
5:53 PM 75.9 °F - 73.0 °F 91% 29.76 in 10.0 mi Calm Calm - 0.01 in Rain Rain
6:07 PM 75.2 °F - 73.4 °F 94% 29.77 in 4.0 mi Calm Calm - 0.08 in Rain Heavy Rain
6:49 PM 75.2 °F - 73.4 °F 94% 29.77 in 10.0 mi SSW 4.6 mph - 0.14 in Rain Light Rain
6:53 PM 75.0 °F - 73.9 °F 96% 29.77 in 10.0 mi South 4.6 mph - 0.14 in Rain Light Rain
7:53 PM 75.0 °F - 73.0 °F 94% 29.76 in 10.0 mi SSE 3.5 mph - 0.01 in   Mostly Cloudy
8:53 PM 73.9 °F - 73.0 °F 97% 29.76 in 10.0 mi Calm Calm - N/A   Clear
9:26 PM 73.4 °F - 73.4 °F 100% 29.77 in 10.0 mi Calm Calm - N/A   Mostly Cloudy
9:36 PM 73.4 °F - 73.4 °F 100% 29.77 in 10.0 mi Calm Calm - 0.00 in Rain Light Rain
9:45 PM 73.4 °F - 73.4 °F 100% 29.77 in 10.0 mi Calm Calm - 0.00 in Rain Light Rain
9:53 PM 73.9 °F - 73.0 °F 97% 29.76 in 10.0 mi Calm Calm - 0.00 in Rain Light Rain
10:53 PM 73.9 °F - 73.0 °F 97% 29.77 in 10.0 mi South 5.8 mph - 0.01 in   Partly Cloudy
11:53 PM 73.9 °F - 72.0 °F 93% 29.76 in 10.0 mi South 5.8 mph - 0.00 in Rain Light Rain